Location: Ch�teau-d�Oex
(46.4750°N, 7.1336°E)
Time: 12:22:57
(UTC+00:00)

Daily predictions for brighter satellites

Satellite Brightness Start Highest point End
(mag) Time Altitude Azimuth Time Altitude Azimuth Time Altitude Azimuth
ATLAS CENTAUR R/B 4.0 16:45:51 10° W 16:51:03 59° NNW 17:05:30 10° ENE
Cosmos 2154 Rocket 4.0 16:48:31 10° S 16:54:47 80° E 17:01:02 10° N
COSMO-SKYMED 1 3.7 16:52:28 10° NE 16:56:06 25° E 16:59:42 10° SSE
Starlink Q 4.4 16:54:15 10° WNW 16:56:56 25° N 16:59:37 10° NE
Cosmos 1758 Rocket 3.9 16:54:22 10° SSE 16:58:25 42° E 17:02:30 10° NNE
Starlink P 4.4 16:56:09 10° WNW 16:58:50 25° N 17:01:31 10° NE
Cosmos 1455 3.1 16:56:59 10° NNE 17:00:17 27° ENE 17:03:32 10° SE
Starlink U 4.4 16:58:02 10° WNW 17:00:43 25° N 17:03:24 10° NE
Cosmos 1626 Rocket 4.1 16:57:01 10° SSW 17:01:18 62° W 17:05:36 10° N
Starlink B 4.4 16:59:58 10° WNW 17:02:38 25° N 17:05:18 10° NE
Cosmos 2333 Rocket 4.4 16:58:39 10° NW 17:03:37 32° WSW 17:08:33 10° SSW
CORIOLIS 4.2 17:00:44 10° SSE 17:06:06 90° WSW 17:11:30 10° NNW
ERBS 2.8 17:07:09 10° WSW 17:10:26 53° NW 17:13:42 10° NE
PSLV R/B 4.4 17:09:25 10° N 17:13:27 63° WNW 17:17:30 10° SSW
Starlink AR 4.4 17:12:48 10° NW 17:14:45 19° N 17:16:26 12° NE
Starlink D 4.5 17:12:22 10° WNW 17:15:02 24° N 17:17:23 12° NE
SL-16 R/B 2.4 17:09:32 10° NNW 17:15:05 50° ENE 17:20:34 10° SE
Cosmos 2366 rocket 4.4 17:10:14 10° SSE 17:15:57 40° E 17:21:45 10° NNE
Cosmos 2251 Rocket 4.0 17:11:09 10° N 17:16:08 40° ENE 17:21:07 10° SE
Starlink S 4.5 17:14:22 10° WNW 17:17:02 24° N 17:19:17 12° NE
H-2A R/B 3.8 17:18:08 11° NE 17:18:21 11° NE 17:19:23 10° NE
Starlink C 4.5 17:16:18 10° WNW 17:18:59 24° N 17:21:08 13° NE
Starlink E 4.5 17:18:19 10° WNW 17:20:59 24° N 17:23:04 13° NE
Cosmos 44 3.3 17:16:58 10° SSW 17:21:27 55° ESE 17:25:35 11° NE
Cosmos 962 Rocket 4.4 17:15:29 10° S 17:21:36 81° E 17:27:48 10° N
Cosmos 1825 Rocket 3.5 17:17:20 10° S 17:21:38 66° E 17:25:57 10° NNE
BREEZE-M DEB (TANK) 2.6 17:20:35 10° SW 17:22:52 41° SSE 17:24:29 17° E
Starlink J 4.5 17:20:20 10° WNW 17:23:00 24° N 17:24:59 14° NE
Cosmos 2219 3.4 17:17:33 10° SSW 17:23:10 73° WNW 17:28:50 10° NNE
Cosmos 2082 4.0 17:18:09 10° S 17:23:30 47° ESE 17:28:53 10° NE
Starlink V 4.5 17:22:19 10° WNW 17:25:00 24° N 17:26:53 15° NE
USA 32 4.0 17:20:47 10° S 17:26:00 83° E 17:31:16 10° N
Shenzhou-11 Module 3.0 17:23:38 10° WSW 17:26:06 31° S 17:27:56 15° ESE
Starlink H 4.5 17:24:21 10° WNW 17:27:01 24° N 17:28:49 15° NE
Starlink F 4.5 17:26:21 10° WNW 17:29:01 24° N 17:30:45 16° NE
USA 116 4.4 17:28:30 17° ENE 17:29:42 22° E 17:32:11 10° SSE
Cosmos 2297 Rocket 2.2 17:24:39 10° SSW 17:30:19 88° WNW 17:36:01 10° NNE
Meteor 2-10 Rocket 3.5 17:25:14 10° N 17:30:30 64° ENE 17:35:34 10° SSE
Starlink G 4.5 17:28:22 10° WNW 17:31:03 24° N 17:32:41 16° NE
Okean-O 2.7 17:26:53 10° SSE 17:31:19 83° WSW 17:35:46 10° NNW
CZ-4 R/B 1.5 17:27:48 10° SSE 17:31:47 53° ENE 17:35:51 10° N
ATLAS CENTAUR R/B 1.7 17:29:09 10° NNW 17:33:01 39° NE 17:36:00 14° ESE
Starlink L 4.5 17:30:23 10° WNW 17:33:03 24° N 17:34:37 17° NE
Envisat 3.4 17:29:59 10° S 17:35:02 68° WSW 17:40:07 10° NNW
Starlink A 4.5 17:32:25 10° WNW 17:35:06 24° N 17:36:33 18° NE
Starlink R 4.5 17:34:26 10° WNW 17:37:08 24° N 17:38:30 18° NE
Cosmos 2221 3.6 17:35:04 10° NNE 17:38:27 22° ENE 17:41:13 13° ESE
Starlink K 4.5 17:36:28 10° NW 17:39:08 24° N 17:40:25 19° NE
Starlink AS 4.4 17:36:55 10° NW 17:39:17 22° N 17:40:16 18° NNE
Starlink BA 4.4 17:37:06 10° NW 17:39:29 22° N 17:40:28 18° NNE
Starlink AU 4.4 17:37:21 10° NW 17:39:43 22° N 17:40:41 19° NNE
Starlink AT 4.4 17:37:33 10° NW 17:39:56 22° N 17:40:53 19° NNE
Starlink BB 4.4 17:37:47 10° NW 17:40:10 22° N 17:41:07 19° NNE
Starlink BC 4.4 17:38:02 10° NW 17:40:24 22° N 17:41:20 19° NNE
Cosmos 2263 Rocket 3.9 17:38:02 10° SE 17:39:40 13° ESE 17:39:40 13° ESE
Starlink BK 4.4 17:38:15 10° NW 17:40:38 22° N 17:41:33 19° NNE
Starlink AY 4.4 17:38:29 10° NW 17:40:53 22° N 17:41:47 19° NNE
Starlink AW 4.4 17:38:43 10° NW 17:41:06 22° N 17:42:00 19° NNE
Starlink M 4.5 17:38:27 10° NW 17:41:08 24° N 17:42:20 19° NE
Starlink BJ 4.4 17:38:56 10° NW 17:41:18 22° N 17:42:12 19° NNE
Starlink AV 4.4 17:39:09 10° NW 17:41:32 22° N 17:42:25 19° NNE
Starlink BD 4.4 17:39:22 10° NW 17:41:45 22° N 17:42:38 19° NNE
Starlink BE 4.4 17:39:34 10° NW 17:41:59 22° N 17:42:53 19° NNE
Starlink BM 4.4 17:39:50 10° NW 17:42:13 22° N 17:43:04 19° NNE
Starlink AX 4.4 17:40:04 10° NW 17:42:27 22° N 17:43:18 19° NNE
Starlink BH 4.4 17:40:17 10° NW 17:42:40 22° N 17:43:30 19° NNE
Starlink AZ 4.4 17:40:31 10° NW 17:42:54 22° N 17:43:44 19° NNE
Starlink BG 4.4 17:40:44 10° NW 17:43:06 22° N 17:43:56 19° NNE
Starlink AQ 4.4 17:40:44 10° NW 17:43:08 22° N 17:43:58 19° NNE
Starlink BF 4.4 17:40:58 10° NW 17:43:21 22° N 17:44:09 19° NNE
Cosmos 2227 Rocket 2.3 17:37:43 10° SSW 17:43:22 78° WNW 17:49:04 10° NNE
Starlink BL 4.4 17:41:09 10° NW 17:43:34 22° N 17:44:23 20° NNE
Starlink AH 4.4 17:41:25 10° NW 17:43:48 22° N 17:44:35 20° NNE
Cosmos 1727 Rocket 4.1 17:37:51 10° N 17:43:53 52° ENE 17:49:53 10° SSE
Cosmos 1328 3.8 17:40:02 10° S 17:43:59 61° E 17:47:57 10° NNE
Starlink AC 4.4 17:41:38 10° NW 17:44:02 22° N 17:44:48 20° NNE
Starlink X 4.3 17:41:52 10° NW 17:44:15 22° N 17:45:01 20° NNE
SKYMED 2 3.5 17:39:58 10° NNE 17:44:21 78° ESE 17:48:41 10° S
Starlink AE 4.4 17:42:02 10° NW 17:44:28 22° N 17:45:16 20° NNE
Starlink Z 4.3 17:42:19 10° NW 17:44:42 22° N 17:45:27 20° NNE
Meteor 1-21 Rocket 4.5 17:39:19 10° SSW 17:44:55 74° WNW 17:50:41 10° N
Starlink AK 4.3 17:42:33 10° NW 17:44:56 22° N 17:45:40 20° NNE
Starlink AL 4.3 17:42:46 10° NW 17:45:10 22° N 17:45:53 20° NNE
Cosmos-2242 3.2 17:40:58 10° NNW 17:45:17 72° W 17:49:32 10° S
NOAA 11 4.2 17:39:58 10° SSE 17:45:21 58° ENE 17:50:44 10° N
Starlink AD 4.3 17:43:01 10° NW 17:45:24 22° N 17:46:06 20° NNE
Starlink Y 4.3 17:43:27 10° NW 17:45:51 22° N 17:46:32 20° NNE
Starlink AG 4.3 17:43:40 10° NW 17:46:03 22° N 17:46:44 20° NNE
Starlink W 4.3 17:43:52 10° NW 17:46:17 22° N 17:46:59 20° NNE
Starlink AJ 4.3 17:44:07 10° NW 17:46:30 22° N 17:47:10 20° NNE
Starlink AM 4.3 17:44:35 10° NW 17:46:59 22° N 17:47:37 20° NNE
Starlink AP 4.3 17:44:48 10° NW 17:47:11 22° N 17:47:50 20° NNE
Starlink AA 4.3 17:45:02 10° NW 17:47:26 22° N 17:48:03 20° NNE
Starlink AF 4.3 17:45:16 10° NW 17:47:39 22° N 17:48:16 21° NNE
Starlink AB 4.3 17:45:28 10° NW 17:47:51 22° N 17:48:27 21° NNE
Starlink AN 4.3 17:45:43 10° NW 17:48:06 22° N 17:48:42 21° NNE
SL-8 Rocket 4.0 17:43:36 10° S 17:49:55 88° E 17:56:14 10° N
USA 267 3.7 17:45:42 14° NE 17:51:16 56° NNW 17:57:36 10° W
Cosmos 407 Rocket 4.5 17:51:01 10° N 17:55:25 26° NE 17:56:11 25° ENE
Cosmos 1356 Rocket 3.3 17:53:09 10° N 17:57:09 57° ENE 18:01:12 10° SSE
YAOGAN 6 3.9 17:54:08 10° S 17:57:39 44° W 18:01:10 10° NNW
Cosmos 44 Rocket 4.2 17:55:21 10° S 17:59:19 26° ESE 17:59:46 26° ESE
Cosmos 1943 4.0 17:54:31 10° N 17:59:24 29° NE 18:00:45 26° ENE
YAOGAN 1 2.5 17:56:13 10° SSE 18:00:33 85° ENE 18:04:54 10° NNW
CZ-2C R/B 4.5 18:07:19 22° NE 18:07:19 22° NE 18:10:36 10° N
CSL-04 Debris 4.2 18:07:33 10° SSE 18:12:56 83° WSW 18:18:23 10° NNW
Cosmos 1703 3.8 18:10:57 10° SSW 18:14:52 61° W 18:18:50 10° N
ISS -3.3 18:13:47 10° W 18:17:05 49° NNW 18:17:28 46° N
Ariane Rocket 3.1 18:13:31 10° SE 18:18:25 52° ENE 18:23:21 10° N
Cosmos 1821 Rocket 4.1 18:17:26 10° SSE 18:23:34 53° E 18:29:40 10° NNE
SWAS 4.4 18:23:29 10° SSW 18:27:49 83° WNW 18:29:15 42° NNE
SL-8 R/B 3.6 18:23:41 10° W 18:28:31 79° NNW 18:29:34 54° ENE
Cosmos 1939 Rocket 3.3 18:25:07 10° S 18:28:59 61° W 18:32:57 10° NNW
COSMO-SKYMED 1 4.2 18:28:22 10° N 18:32:18 34° WNW 18:36:14 10° SW
CSL-04 Rocket 4.4 18:29:24 10° S 18:34:49 57° W 18:40:18 10° NNW
Cosmos 1842 Rocket 3.7 18:31:22 10° NNW 18:35:51 75° W 18:40:19 10° S
ATLAS 5 CENTAUR R/B 4.2 18:37:13 10° NNW 18:39:13 12° N 18:40:05 12° NNE
CZ-2D R/B 4.5 18:38:26 10° S 18:42:04 42° W 18:45:46 10° NNW
Cosmos 614 Rocket 3.9 18:38:47 10° NNW 18:43:53 63° ENE 18:43:53 63° ENE
USA 238 DEB 4.1 18:40:45 10° S 18:46:24 41° SE 18:46:24 41° SE
USA 238 4.1 18:40:54 10° S 18:46:26 40° SE 18:46:26 40° SE
Cosmos 2123 Rocket 4.0 18:42:45 10° N 18:48:58 55° ENE 18:49:00 55° ENE
ADEOS Rocket 3.2 18:42:22 10° NNE 18:49:07 85° ESE 18:56:33 10° SSW
H-2A R/B 2.9 18:58:44 36° N 18:58:44 36° N 19:01:50 10° N
Cosmos 1000 Rocket 4.5 18:50:45 10° N 18:56:58 83° W 19:03:14 10° S
SJ-11-01 4.3 18:58:22 82° WNW 18:58:22 82° WNW 19:02:59 10° NNW
SL-16 R/B 4.1 18:54:09 10° NW 18:58:54 28° WSW 19:03:37 10° SSW
Cosmos 2227 4.1 18:57:01 10° SSW 19:02:34 78° SE 19:02:34 78° SE
Atlas Centaur 2 4.2 19:01:20 10° SSW 19:03:39 14° S 19:03:39 14° S
Cosmos 1140 Rocket 4.5 19:00:53 10° NNW 19:04:04 36° N 19:04:04 36° N
ATLAS CENTAUR R/B 3.3 19:08:34 10° WNW 19:11:42 23° WSW 19:12:16 22° SW
Cosmos 1603 3.8 19:06:28 10° NNW 19:12:08 73° WSW 19:12:44 66° SSW
Cosmos 2297 Rocket 4.5 19:11:14 10° W 19:15:13 19° NW 19:19:12 10° N
Cosmos 2221 3.9 19:12:11 10° NNW 19:16:07 36° W 19:18:40 19° SSW
NOSS 3-3 (A) 4.3 19:11:07 10° NW 19:18:33 72° NE 19:19:08 70° E
NOSS 3-3 (C) 4.3 19:11:13 10° NW 19:18:38 72° NE 19:19:12 70° ENE
ARGOS 4.2 19:24:29 36° NNW 19:24:29 36° NNW 19:27:37 10° NNW
Cosmos 2263 Rocket 3.1 19:18:03 10° SSW 19:21:27 39° SSW 19:21:27 39° SSW
USA 267 4.2 19:33:03 36° N 19:33:33 36° N 19:39:23 10° WNW
BREEZE-M DEB (TANK) 4.2 19:08:51 10° WNW 19:35:59 87° SSW 19:36:59 73° SE
Cosmos 1943 4.1 19:38:16 10° NW 19:42:37 46° WNW 19:42:37 46° WNW
ATLAS 5 CENTAUR R/B 4.3 19:53:33 10° NW 19:59:26 77° SW 20:26:34 10° SSE
